Temp
35 33 32 32 29 28 27 26 25 24 23 23 22 23 23 23 23 24 23 22 22 21 21 20 21 21 21 22 22 22 23 22 23 23 23 23 23 23 23 23 23 22 21
36 34 33 32 30 28 27 26 25 24 23 23 23 22 22 22 22 22 22 22 21 21 20 20 20 21 21 21 22 22 22 22 22 23 23 21 22 23 23 23 22 23 22
35 35 32 32 30 27 27 26 25 24 23 22 22 21 21 21 21 21 21 21 21 20 20 20 20 21 20 21 21 22 22 21 22 22 23 21 22 23 23 23 22 22 22
36 31 30 30 30 29 27 27 25 24 23 22 22 21 20 20 21 21 20 20 20 20 20 20 20 20 20 21 21 22 22 22 21 22 23 23 23 21 22 23 22 22 22
35 32 31 30 30 29 28 26 25 24 23 22 21 21 20 20 20 20 19 19 20 20 20 20 20 20 20 21 21 21 21 22 21 22 23 22 23 23 23 22 22 22 22
31 31 29 29 23 28 28 25 24 23 23 22 22 20 20 20 19 19 19 19 19 19 19 20 19 20 20 21 21 21 21 22 22 22 21 22 23 23 24 22 23 22 22
28 27 27 24 22 22 28 27 24 23 23 22 21 20 19 20 19 19 20 19 19 19 19 19 19 19 20 20 20 21 21 21 22 20 20 20 23 24 24 24 23 23 24
29 30 29 27 28 28 27 27 24 23 22 22 21 20 19 19 19 19 20 20 20 20 20 19 19 20 20 20 21 21 21 21 21 21 22 22 24 24 24 24 24 22 24
29 28 26 24 28 27 27 26 24 23 22 22 21 20 19 19 19 19 19 20 20 20 19 19 19 20 20 19 21 21 20 21 21 20 21 21 22 23 24 24 25 24 22
27 27 27 28 29 27 26 25 24 23 23 22 21 21 19 19 19 19 19 19 19 19 19 19 19 19 20 20 20 20 20 20 20 20 21 22 23 22 22 24 24 25 24
30 28 30 29 29 27 26 25 25 24 23 22 22 21 20 19 19 19 19 19 19 19 19 19 19 19 19 20 20 19 20 20 20 21 21 21 23 22 22 23 24 24 24
29 30 30 29 29 28 27 26 25 24 23 22 22 22 21 20 19 19 19 19 19 19 19 19 19 19 19 18 19 19 19 19 19 20 20 20 21 22 22 23 23 23 23
30 29 28 29 29 28 27 25 25 25 24 23 22 23 22 21 20 19 19 19 19 19 19 19 19 18 18 18 18 19 18 18 19 19 19 19 19 19 20 21 22 22 22
28 27 27 28 29 28 26 25 25 26 25 24 23 22 22 21 21 20 19 19 19 18 18 18 18 18 17 17 17 18 17 17 17 17 17 18 18 18 18 19 20 20 21
29 28 28 27 28 27 27 27 26 26 25 24 23 22 22 22 22 21 19 19 19 18 18 18 17 17 17 17 17 16 16 16 16 16 16 16 17 17 17 18 19 20 20
27 28 28 28 27 27 27 27 26 26 25 24 24 23 23 22 22 21 20 20 19 19 18 18 17 17 16 16 16 16 16 15 15 15 15 15 15 15 16 16 17 18 18
27 26 27 26 25 25 25 25 24 24 24 24 24 23 23 22 21 22 21 20 19 18 17 16 16 15 16 16 16 16 15 15 14 14 14 14 14 14 16 16 16 16 16
26 26 25 24 22 21 20 20 20 21 23 23 24 23 23 23 22 21 19 17 17 16 15 15 14 13 14 16 16 15 16 14 14 14 14 15 15 16 16 15 15 15 15
24 22 20 19 17 16 15 17 18 19 21 22 22 23 23 20 18 17 17 16 15 14 13 13 12 13 13 15 15 15 14 14 13 13 14 14 14 15 15 15 13 13 12
20 18 16 15 14 13 14 14 16 16 17 18 19 19 17 15 14 15 14 14 13 13 11 10 10 11 13 14 15 15 13 12 11 12 12 12 13 14 14 14 13 12 12
17 15 14 13 12 11 11 11 11 11 11 13 13 14 14 13 12 13 13 12 10 9 8 8 8 9 11 13 14 15 14 12 11 9 10 10 12 13 13 13 12 11 11
16 14 13 11 11 10 10 9 9 10 10 10 11 10 11 11 11 12 10 10 9 8 7 7 7 7 9 10 11 11 11 11 10 8 8 9 10 10 10 10 10 10 10
14 13 12 11 10 10 9 9 9 9 9 8 8 8 8 8 8 8 8 8 8 7 7 6 6 6 7 7 7 8 8 8 8 7 8 8 8 8 9 9 9 9 9
13 12 11 11 10 9 9 9 9 8 8 8 8 8 8 8 8 8 8 7 7 7 6 6 6 6 6 7 7 7 7 7 7 8 9 9 9 9 9 9 9 9 10
12 11 11 12 11 10 10 10 9 9 9 9 8 8 8 7 7 7 7 7 7 8 7 7 7 7 7 7 8 8 7 8 8 9 9 10 10 10 10 10 10 9 9
12 12 11 11 11 11 11 11 11 11 11 10 9 9 8 8 8 7 7 8 7 8 8 8 8 7 7 7 8 9 9 9 10 10 11 11 11 10 10 10 10 10 9
Height
726 735 743 749 757 764 771 776 779 781 782 784 785 785 785 786 786 786 786 787 790 792 792 796 799 803 807 808 810 811 814 819 823 827 828 829 829 829 830 831 833 835 836
722 731 739 747 754 762 769 774 778 780 782 784 783 784 784 784 784 782 782 784 786 788 789 792 795 799 801 804 807 809 812 818 823 824 827 828 827 826 826 828 829 831 833
721 727 735 744 754 762 768 770 774 778 780 781 782 783 783 782 780 779 779 779 781 784 786 788 791 794 797 800 803 806 810 815 820 823 825 827 826 824 824 825 826 827 830
717 728 739 747 754 761 765 770 773 774 777 780 780 781 780 779 778 777 777 777 778 778 781 785 788 790 792 796 800 803 807 811 816 822 823 823 822 823 825 823 822 824 826
720 733 743 752 757 759 758 767 773 774 775 777 778 779 778 777 775 772 771 772 773 774 777 781 783 786 789 791 796 800 804 806 815 819 820 821 820 821 822 822 821 822 822
729 738 749 756 763 766 762 767 772 774 774 776 777 777 777 775 772 769 767 767 768 771 773 777 779 782 784 788 793 797 801 806 812 815 818 820 820 819 820 820 819 820 820
737 746 752 756 752 767 764 769 774 775 772 774 776 776 776 773 770 766 764 764 766 768 771 774 776 779 781 784 789 793 798 803 808 811 815 815 817 818 817 817 818 818 818
737 744 750 754 759 759 767 773 776 774 772 774 776 776 775 773 770 767 765 766 767 769 770 772 774 775 778 781 785 789 797 802 805 808 811 813 813 814 814 815 817 819 817
742 749 753 757 759 763 769 773 774 771 772 773 775 776 776 774 771 768 768 769 769 770 771 772 773 774 776 779 783 789 793 798 801 806 809 811 810 812 813 813 815 817 820
746 746 748 752 757 763 769 770 770 772 773 774 776 777 777 776 773 770 771 771 772 772 772 773 774 774 776 779 784 788 793 797 800 805 808 809 810 812 810 811 813 814 816
737 742 745 750 753 760 765 768 768 770 773 773 776 777 778 777 776 775 774 775 775 774 772 774 775 777 779 783 786 788 793 798 802 805 807 809 810 810 814 811 811 813 814
737 740 745 750 754 757 761 765 767 770 772 774 776 777 778 779 779 779 779 779 779 780 779 778 779 782 784 786 788 792 797 800 803 806 808 810 811 809 811 811 812 813 814
737 743 747 750 752 756 761 766 767 768 772 773 775 777 777 779 780 781 781 781 781 781 782 783 784 785 787 789 792 794 797 800 802 805 807 810 811 812 812 813 813 814 815
743 747 749 750 753 756 761 764 767 767 770 772 775 776 777 779 779 780 782 782 783 784 785 786 787 789 791 793 795 796 798 801 803 806 808 810 813 814 815 816 815 816 816
742 748 751 753 754 756 758 762 764 767 768 771 773 775 776 778 780 781 783 783 785 787 788 789 791 793 795 796 798 800 802 804 806 809 811 813 813 814 816 816 817 815 815
747 749 750 753 755 757 758 761 762 764 766 769 770 773 776 779 781 783 785 785 787 789 791 793 796 798 799 801 802 804 805 806 808 810 812 813 814 816 818 819 819 819 816
748 753 754 757 760 761 762 763 764 765 766 768 770 772 776 779 782 784 786 789 790 792 795 796 798 800 801 804 806 807 808 809 811 812 814 816 817 819 819 818 820 822 820
751 754 757 761 764 765 765 765 765 765 766 768 769 771 774 779 782 786 789 791 794 796 798 801 802 802 804 805 808 809 811 813 814 815 817 818 820 820 820 821 823 823 821
756 761 765 768 769 770 769 767 766 766 766 767 769 771 774 779 783 789 791 795 797 800 802 805 806 806 807 808 809 811 812 815 817 818 820 821 821 823 823 823 826 827 828
766 768 770 771 771 771 770 768 767 766 767 767 769 771 775 781 786 789 793 797 800 804 806 810 810 809 809 811 812 814 817 819 821 822 822 824 825 825 826 827 828 829 831
770 771 772 773 774 773 773 773 772 771 772 770 771 773 778 785 789 791 795 799 803 806 811 813 815 814 814 814 815 816 818 822 824 825 825 828 828 829 828 831 830 832 833
772 774 776 777 777 777 777 777 777 779 777 776 776 780 782 789 792 794 800 804 808 810 815 815 817 818 820 818 819 821 822 824 826 828 829 829 831 833 833 832 834 834 833
775 777 779 781 782 781 781 782 784 784 784 783 784 786 789 793 798 800 804 808 812 814 817 821 823 823 824 825 827 827 827 828 828 831 831 833 834 833 836 836 837 837 836
777 780 781 784 787 787 786 787 789 789 790 792 794 795 798 802 805 808 812 815 819 821 822 823 826 828 829 829 831 830 832 833 834 833 835 836 838 838 838 839 839 838 838
780 782 784 786 790 792 792 793 795 795 797 799 801 803 805 808 812 815 820 823 825 827 826 829 830 831 831 833 833 834 835 836 837 836 837 838 840 838 839 839 839 839 839
783 785 788 790 792 793 796 798 800 801 802 805 808 810 813 816 819 822 826 829 831 832 833 833 833 833 834 835 836 836 837 837 837 838 839 840 841 841 841 841 840 841 841
Wind_Speed
16 21 19 18 23 20 16 13 12 12 13 13 14 13 14 13 14 12 9 15 19 19 22 21 19 16 19 20 17 16 15 14 10 9 7 9 9 11 12 14 15 11 14
8 15 20 17 20 20 14 11 11 12 12 11 13 13 11 13 16 16 18 19 15 20 20 23 20 20 19 19 20 19 17 14 11 5 2 2 7 16 14 13 13 13 16
13 11 13 17 14 19 14 14 13 11 11 10 9 11 12 15 16 19 18 16 20 20 21 21 25 21 20 21 21 20 20 16 13 14 6 2 3 1 8 13 15 12 15
5 8 11 15 11 11 12 13 9 9 6 5 7 8 12 15 15 16 17 18 19 19 20 21 24 24 21 23 21 23 23 16 13 14 20 15 4 1 2 3 10 11 14
11 15 13 13 11 10 17 14 11 4 2 2 6 6 8 14 16 17 16 16 17 17 20 22 24 24 24 24 25 22 23 23 24 16 9 16 11 10 5 1 2 9 11
18 17 19 13 29 18 18 12 8 6 1 2 6 7 9 14 13 15 11 14 16 16 18 21 23 24 24 24 24 27 24 25 25 15 15 13 8 3 3 1 4 7 10
15 13 11 14 27 27 10 3 6 4 4 3 4 9 12 13 12 16 9 8 11 14 17 18 21 23 23 20 24 25 26 26 18 14 14 10 15 7 4 4 4 3 6
14 15 11 12 13 13 6 4 6 4 3 3 4 8 11 11 11 11 4 1 6 8 10 14 19 22 22 22 23 19 20 20 16 14 13 9 7 6 5 7 8 3 3
16 10 10 12 13 11 6 5 2 4 5 3 2 7 7 11 14 11 9 3 2 4 5 10 14 18 20 22 21 20 19 18 16 15 13 11 6 3 9 13 12 7 2
16 14 12 15 13 11 7 4 4 3 5 6 5 5 7 11 12 15 16 13 10 5 3 7 9 12 16 18 18 18 19 17 16 17 12 9 9 11 12 7 4 7 2
16 13 12 14 12 11 8 5 7 6 4 2 3 5 7 8 10 12 14 12 10 9 10 6 9 10 12 13 13 14 16 17 16 13 11 9 11 10 4 5 3 4 6
16 15 13 14 12 15 15 7 7 5 4 3 3 6 4 5 6 8 10 9 9 9 10 11 9 11 13 12 11 12 13 13 11 8 7 4 4 7 7 6 3 2 3
13 13 7 8 7 9 10 6 1 7 4 6 3 1 5 3 2 4 4 6 8 8 8 10 12 13 12 13 14 17 17 16 14 11 10 11 12 10 13 7 7 1 2
14 7 5 5 7 9 11 5 4 4 6 5 3 1 3 5 4 5 5 5 7 7 9 12 14 15 13 12 13 13 10 9 8 6 5 6 11 9 6 10 12 8 7
11 9 7 4 4 4 6 7 6 5 8 5 7 7 5 3 5 7 7 7 8 8 10 13 14 13 13 13 14 13 12 11 9 6 4 3 4 5 3 5 10 13 10
10 9 6 5 3 5 2 2 5 6 8 5 8 12 7 12 8 9 10 10 9 10 12 12 12 11 9 10 8 8 10 10 10 9 7 6 5 6 4 7 6 10 4
8 5 5 5 4 4 5 7 6 4 3 10 7 15 11 11 11 10 10 11 15 19 18 19 17 10 9 7 5 5 7 8 8 8 9 8 10 9 11 8 7 12 18
10 8 7 9 10 9 10 11 11 10 9 7 11 17 14 10 11 10 12 21 22 22 21 19 16 13 11 8 7 8 11 14 15 15 13 12 10 10 12 8 12 16 18
10 10 8 9 9 9 10 10 9 9 11 8 11 16 14 10 16 15 19 21 22 23 23 20 18 17 16 14 15 16 16 14 15 14 13 13 14 13 11 12 17 20 19
11 9 9 9 11 12 10 11 11 8 10 8 8 21 21 21 25 25 25 25 24 22 21 19 18 16 18 14 14 11 15 17 16 19 20 17 15 13 12 16 17 18 16
10 11 12 13 13 12 11 16 18 20 16 20 24 26 24 25 24 27 26 24 22 21 20 20 20 21 19 14 15 18 17 16 16 16 20 19 15 13 12 10 12 11 7
11 13 13 14 12 11 15 18 20 18 19 24 27 25 25 22 21 22 21 20 20 21 22 26 25 24 22 21 20 17 15 14 18 19 18 16 11 11 11 12 10 7 6
13 13 14 14 16 16 18 19 18 21 25 29 29 30 29 27 24 26 26 27 24 25 23 19 20 20 19 20 17 14 14 13 16 16 16 14 13 13 12 9 8 6 5
13 13 16 15 15 18 21 24 24 27 29 29 28 28 29 29 28 26 22 23 19 19 19 19 15 16 16 16 15 17 16 16 16 15 13 12 11 10 9 7 7 9 10
14 14 15 16 18 18 20 21 23 26 26 25 25 26 26 29 27 26 22 22 20 19 19 15 11 12 12 11 10 7 5 7 6 5 4 5 5 5 4 7 7 10 9
15 16 16 17 18 20 20 18 18 19 22 22 23 26 27 26 25 27 27 21 20 19 16 14 12 13 12 11 9 10 10 9 6 8 9 9 10 10 9 9 8 9 8
Wind_Direction
176 172 180 174 159 168 172 182 193 194 196 206 211 228 236 236 242 241 236 233 236 232 227 226 230 224 209 213 216 217 219 232 216 231 231 244 239 228 239 234 235 222 213
189 169 171 178 158 158 166 187 205 205 210 223 235 242 251 251 252 262 259 249 232 230 227 225 225 221 218 211 214 211 213 234 224 220 211 258 242 236 233 236 238 234 221
171 176 160 148 147 140 170 196 204 223 235 245 249 256 266 264 259 262 257 255 245 238 229 223 225 219 216 210 213 209 208 215 225 219 224 231 225 200 232 233 234 230 214
114 118 101 123 142 170 180 203 199 212 224 264 262 260 272 279 278 270 266 253 248 240 229 221 224 223 216 211 212 210 211 208 236 234 240 251 220 167 246 205 233 238 222
143 128 125 124 166 173 157 152 158 139 100 303 292 300 295 285 288 287 264 249 239 236 225 221 220 222 218 216 207 207 212 205 219 223 221 248 239 226 250 65 241 225 217
110 113 111 108 39 300 127 127 117 128 88 8 5 351 320 310 310 302 272 250 235 230 223 216 214 215 217 211 209 207 210 211 220 213 237 254 240 231 234 258 211 213 203
120 110 111 120 153 229 92 153 131 121 99 52 19 1 350 335 327 328 270 239 216 210 215 212 213 210 209 203 205 211 214 209 208 216 222 201 227 244 286 299 250 198 199
140 137 128 142 163 108 123 204 120 98 81 72 24 360 350 355 359 356 39 176 221 224 213 212 213 209 206 206 202 202 203 206 205 214 205 219 205 233 252 271 299 309 179
120 126 148 153 129 128 148 108 110 98 104 82 5 10 14 16 22 38 37 63 118 181 201 209 206 210 202 202 202 195 191 192 198 203 205 223 204 281 291 248 267 280 335
145 160 160 166 141 135 126 129 112 108 91 79 38 42 49 53 52 62 55 58 65 72 176 194 193 205 195 193 176 176 189 188 189 199 194 197 192 256 310 288 273 293 293
153 129 160 140 147 133 134 190 144 140 121 86 36 109 74 68 55 60 64 58 64 67 72 112 145 156 166 163 159 152 172 174 173 175 184 201 226 263 275 344 273 286 306
144 151 142 154 162 166 162 155 132 124 140 123 106 143 143 89 71 82 76 84 83 79 80 100 119 125 130 130 138 141 138 139 133 137 127 114 290 249 312 302 334 329 37
143 137 160 154 139 114 107 116 216 143 147 149 162 147 167 187 162 127 101 100 103 100 107 104 112 123 126 129 126 134 128 111 101 88 77 59 51 45 16 22 36 301 282
146 154 133 145 132 124 132 150 211 184 152 152 169 133 144 197 179 156 135 113 121 123 113 114 114 118 123 127 131 139 139 137 114 94 77 39 40 54 26 357 11 9 347
133 124 127 124 160 177 146 166 184 183 149 166 180 150 124 159 131 130 118 131 138 133 136 118 114 119 118 124 127 129 134 139 132 116 122 125 74 55 50 12 337 329 337
135 165 128 130 64 17 97 284 190 180 185 202 188 151 127 127 122 121 121 120 120 115 131 128 117 110 117 127 126 134 131 125 123 123 117 105 108 92 48 42 343 359 317
133 111 115 98 64 33 4 340 23 326 219 176 209 149 150 147 148 146 131 107 92 94 93 96 102 98 122 144 142 133 136 134 134 134 125 102 98 102 98 86 69 78 75
149 123 78 50 29 5 357 344 335 324 310 216 215 163 160 159 169 137 112 97 91 88 83 76 73 85 94 126 126 129 108 101 103 107 104 118 98 86 106 97 85 75 64
80 77 62 43 28 11 350 332 312 297 290 285 222 179 155 120 107 100 96 99 94 90 85 81 76 79 77 108 112 117 109 100 93 90 96 99 90 93 100 87 82 72 70
72 73 70 59 40 18 16 31 33 49 20 67 127 127 123 123 109 109 102 102 92 88 86 77 77 86 80 84 109 105 101 98 92 91 87 81 85 94 100 106 99 87 79
81 75 64 55 42 35 52 60 59 53 76 104 110 119 119 114 112 113 110 110 108 102 91 82 76 73 75 77 91 117 111 105 101 92 84 77 81 82 83 86 81 76 56
80 72 65 55 51 60 76 67 60 75 89 96 102 104 110 116 114 113 109 106 105 99 95 95 84 79 75 77 78 83 88 108 107 96 90 87 82 77 87 84 82 80 55
86 82 83 75 68 78 87 82 84 95 91 88 87 93 95 96 102 102 103 103 106 106 100 91 89 89 88 82 83 90 95 94 93 92 91 78 72 77 76 78 63 46 40
99 100 96 90 86 89 94 98 98 97 94 91 91 90 93 92 92 91 94 102 103 103 103 100 98 101 96 94 94 90 91 94 92 94 93 86 84 92 77 68 61 47 39
107 106 102 101 108 107 103 104 105 104 98 96 95 92 91 92 88 86 89 95 92 94 96 95 99 102 95 90 94 110 117 121 129 141 112 105 95 89 102 87 77 50 45
117 116 112 111 111 110 107 110 112 112 108 103 102 102 99 97 93 91 87 85 88 90 91 91 92 95 95 94 102 115 116 113 88 109 96 72 65 54 41 38 45 69 40